Torna al catalogo

ONEWEB-0624

AttivoComunicazioniPO
NORAD 55165·PAYLOAD·🇬🇧 United Kingdom

Lanciato Jan 10, 2023 da Cape Canaveral Space Force Station

Loading…

Prossimi Passaggi (prossime 24 ore)

TLE

AggiornatoSource: CelesTrak SupGP

Epoca: Sep 14, 2026, 15:59 UTC

1 55165C 23004AB  26257.66646245  .00003515  00000+0  97135-2 0  2579
2 55165  87.8985 332.8057 0001869 106.0370 264.7958 13.12928933    11

Traccia ONEWEB-0624 in tempo reale con AllMySat

Download on the App Store